When you browse on this site, cookies collect data to enhance your experience and personalize the content and advertising you see.
Visit our Privacy Policy to learn more. By continuing to use the site, you agree to this use of cookies and data.
  • In Hungary
  • List of Countries
  • For 7 days
  • Water Temperature
  • Weather Map
  • News
  • Weather Widgets
  • user-avatar
    Login

    Hourly Weather Kudrinskiy Uchastok

    Today, 25 January, Saturday

    Time Temperature Precipitation Wind Pressure Humidity
    00:00 -3°C° 0 mm 4 mps 742 mmHg 96%
    01:00 -3°C° 0.4 mm 4 mps 742 mmHg 96%
    02:00 -3°C° 0.4 mm 4 mps 742 mmHg 96%
    03:00 -2°C° 0.4 mm 3 mps 742 mmHg 96%
    04:00 -4°C° 0.4 mm 4 mps 741 mmHg 96%
    05:00 -4°C° 0.4 mm 4 mps 741 mmHg 96%
    06:00 -5°C° 0.4 mm 5 mps 740 mmHg 96%
    07:00 -5°C° 0.7 mm 5 mps 739 mmHg 95%
    08:00 -6°C° 0.7 mm 5 mps 738 mmHg 95%
    09:00 -6°C° 0.7 mm 5 mps 737 mmHg 95%
    10:00 -6°C° 0.8 mm 6 mps 737 mmHg 94%
    11:00 -5°C° 0.8 mm 6 mps 737 mmHg 94%
    12:00 -6°C° 0.8 mm 7 mps 736 mmHg 93%
    13:00 -5°C° 0.3 mm 6 mps 737 mmHg 93%
    14:00 -4°C° 0.3 mm 6 mps 737 mmHg 92%
    15:00 -4°C° 0.3 mm 6 mps 737 mmHg 92%
    16:00 -4°C° 0.1 mm 6 mps 738 mmHg 91%
    17:00 -5°C° 0.1 mm 6 mps 740 mmHg 90%
    18:00 -5°C° 0.1 mm 6 mps 741 mmHg 90%
    19:00 -7°C° 0.1 mm 5 mps 742 mmHg 89%
    20:00 -10°C° 0.1 mm 5 mps 743 mmHg 89%
    21:00 -10°C° 0.1 mm 4 mps 744 mmHg 89%
    22:00 -11°C° 0 mm 4 mps 744 mmHg 89%
    23:00 -12°C° 0 mm 4 mps 745 mmHg 90%

    Tomorrow, 26 January, Sunday

    Time Temperature Precipitation Wind Pressure Humidity
    00:00 -14°C° 0 mm 4 mps 746 mmHg 90%
    01:00 -14°C° 0 mm 4 mps 746 mmHg 91%
    02:00 -14°C° 0 mm 3 mps 746 mmHg 92%
    03:00 -14°C° 0 mm 3 mps 747 mmHg 93%
    04:00 -14°C° 0 mm 3 mps 747 mmHg 93%
    05:00 -15°C° 0 mm 4 mps 747 mmHg 93%
    06:00 -14°C° 0 mm 4 mps 748 mmHg 93%
    07:00 -15°C° 0 mm 4 mps 748 mmHg 92%
    08:00 -15°C° 0 mm 4 mps 749 mmHg 92%
    09:00 -16°C° 0 mm 4 mps 749 mmHg 92%
    10:00 -16°C° 0 mm 4 mps 749 mmHg 91%
    11:00 -16°C° 0 mm 4 mps 750 mmHg 89%
    12:00 -16°C° 0 mm 4 mps 750 mmHg 88%
    13:00 -15°C° 0 mm 4 mps 750 mmHg 88%
    14:00 -15°C° 0 mm 4 mps 750 mmHg 87%
    15:00 -15°C° 0 mm 4 mps 750 mmHg 86%
    16:00 -15°C° 0 mm 5 mps 750 mmHg 86%
    17:00 -15°C° 0 mm 5 mps 751 mmHg 86%
    18:00 -15°C° 0 mm 5 mps 751 mmHg 85%
    19:00 -15°C° 0 mm 5 mps 751 mmHg 86%
    20:00 -15°C° 0 mm 5 mps 751 mmHg 87%
    21:00 -15°C° 0 mm 5 mps 751 mmHg 88%
    22:00 -15°C° 0 mm 5 mps 751 mmHg 88%
    23:00 -15°C° 0 mm 4 mps 751 mmHg 89%

    Day after tomorrow, 27 January, Monday

    Time Temperature Precipitation Wind Pressure Humidity
    00:00 -15°C° 0 mm 4 mps 751 mmHg 89%
    01:00 -15°C° 0 mm 4 mps 751 mmHg 89%
    02:00 -15°C° 0 mm 4 mps 751 mmHg 89%
    03:00 -15°C° 0 mm 4 mps 750 mmHg 89%
    04:00 -15°C° 0 mm 4 mps 750 mmHg 88%
    05:00 -15°C° 0 mm 5 mps 750 mmHg 86%
    06:00 -15°C° 0 mm 5 mps 749 mmHg 85%
    07:00 -14°C° 0 mm 5 mps 749 mmHg 83%
    08:00 -14°C° 0 mm 5 mps 748 mmHg 81%
    09:00 -14°C° 0 mm 5 mps 748 mmHg 80%
    10:00 -13°C° 0 mm 5 mps 748 mmHg 78%
    11:00 -12°C° 0 mm 6 mps 747 mmHg 77%
    12:00 -11°C° 0 mm 6 mps 747 mmHg 75%
    13:00 -10°C° 0 mm 6 mps 746 mmHg 79%
    14:00 -10°C° 0 mm 6 mps 746 mmHg 82%
    15:00 -10°C° 0 mm 6 mps 745 mmHg 86%
    16:00 -9°C° 0.1 mm 6 mps 745 mmHg 87%
    17:00 -9°C° 0.1 mm 6 mps 745 mmHg 88%
    18:00 -9°C° 0.1 mm 6 mps 744 mmHg 89%
    19:00 -9°C° 0.1 mm 6 mps 744 mmHg 90%
    20:00 -8°C° 0.1 mm 6 mps 744 mmHg 90%
    21:00 -8°C° 0.1 mm 6 mps 743 mmHg 91%
    22:00 -8°C° 0.1 mm 6 mps 743 mmHg 91%
    23:00 -6°C° 0.1 mm 6 mps 743 mmHg 91%

    28 January, Tuesday

    Time Temperature Precipitation Wind Pressure Humidity
    00:00 -6°C° 0.1 mm 6 mps 742 mmHg 92%
    01:00 -6°C° 0.2 mm 6 mps 742 mmHg 91%
    02:00 -6°C° 0.2 mm 6 mps 742 mmHg 91%
    03:00 -5°C° 0.2 mm 6 mps 742 mmHg 90%
    04:00 -6°C° 0 mm 6 mps 743 mmHg 88%
    05:00 -8°C° 0 mm 6 mps 743 mmHg 87%
    06:00 -9°C° 0 mm 6 mps 744 mmHg 85%
    07:00 -11°C° 0 mm 5 mps 745 mmHg 87%
    08:00 -12°C° 0 mm 5 mps 745 mmHg 88%
    09:00 -12°C° 0 mm 4 mps 746 mmHg 90%
    10:00 -12°C° 0 mm 4 mps 746 mmHg 90%
    11:00 -11°C° 0 mm 4 mps 747 mmHg 89%
    12:00 -11°C° 0 mm 4 mps 747 mmHg 88%
    13:00 -12°C° 0.1 mm 5 mps 747 mmHg 89%
    14:00 -12°C° 0.1 mm 5 mps 747 mmHg 90%
    15:00 -11°C° 0.1 mm 5 mps 747 mmHg 90%
    16:00 -12°C° 0.1 mm 5 mps 747 mmHg 90%
    17:00 -11°C° 0.1 mm 4 mps 747 mmHg 91%
    18:00 -12°C° 0.1 mm 4 mps 747 mmHg 91%
    19:00 -12°C° 0.1 mm 4 mps 747 mmHg 91%
    20:00 -12°C° 0.1 mm 3 mps 747 mmHg 92%
    21:00 -12°C° 0.1 mm 3 mps 748 mmHg 92%
    22:00 -13°C° 0.1 mm 3 mps 747 mmHg 93%
    23:00 -12°C° 0.1 mm 2 mps 747 mmHg 95%

    29 January, Wednesday

    Time Temperature Precipitation Wind Pressure Humidity
    00:00 -11°C° 0.1 mm 1 mps 747 mmHg 96%
    01:00 -11°C° 0.1 mm 1 mps 747 mmHg 96%
    02:00 -11°C° 0.1 mm 1 mps 747 mmHg 96%
    03:00 -12°C° 0.1 mm 0 mps 746 mmHg 96%
    04:00 -12°C° 0.1 mm 1 mps 746 mmHg 96%
    05:00 -12°C° 0.1 mm 1 mps 746 mmHg 96%
    06:00 -15°C° 0.1 mm 2 mps 746 mmHg 96%
    07:00 -16°C° 0 mm 2 mps 747 mmHg 96%
    08:00 -17°C° 0 mm 2 mps 747 mmHg 95%
    09:00 -19°C° 0 mm 3 mps 748 mmHg 95%
    10:00 -19°C° 0 mm 3 mps 749 mmHg 94%
    11:00 -19°C° 0 mm 3 mps 750 mmHg 93%
    12:00 -20°C° 0 mm 4 mps 751 mmHg 91%
    13:00 -20°C° 0 mm 4 mps 752 mmHg 92%
    14:00 -20°C° 0 mm 4 mps 754 mmHg 92%
    15:00 -20°C° 0 mm 4 mps 755 mmHg 92%
    16:00 -22°C° 0.1 mm 4 mps 756 mmHg 93%
    17:00 -23°C° 0.1 mm 4 mps 756 mmHg 93%
    18:00 -24°C° 0.1 mm 4 mps 757 mmHg 93%
    19:00 -24°C° 0 mm 4 mps 758 mmHg 93%
    20:00 -25°C° 0 mm 4 mps 759 mmHg 94%
    21:00 -26°C° 0 mm 4 mps 760 mmHg 94%
    22:00 -26°C° 0 mm 4 mps 760 mmHg 94%
    23:00 -27°C° 0 mm 4 mps 761 mmHg 94%

    30 January, Thursday

    Time Temperature Precipitation Wind Pressure Humidity
    00:00 -26°C° 0 mm 3 mps 761 mmHg 94%
    01:00 -26°C° 0 mm 3 mps 762 mmHg 94%
    02:00 -27°C° 0 mm 3 mps 763 mmHg 95%
    03:00 -27°C° 0 mm 3 mps 763 mmHg 95%
    04:00 -29°C° 0 mm 3 mps 763 mmHg 95%
    05:00 -29°C° 0 mm 3 mps 764 mmHg 94%
    06:00 -29°C° 0 mm 3 mps 764 mmHg 94%
    07:00 -30°C° 0 mm 3 mps 764 mmHg 95%
    08:00 -30°C° 0 mm 3 mps 765 mmHg 95%
    09:00 -30°C° 0 mm 3 mps 765 mmHg 95%
    10:00 -29°C° 0 mm 3 mps 766 mmHg 95%
    11:00 -29°C° 0 mm 3 mps 766 mmHg 94%
    12:00 -27°C° 0 mm 3 mps 766 mmHg 94%
    13:00 -27°C° 0 mm 3 mps 767 mmHg 94%
    14:00 -27°C° 0 mm 3 mps 767 mmHg 94%
    15:00 -27°C° 0 mm 3 mps 767 mmHg 94%
    16:00 -27°C° 0 mm 3 mps 768 mmHg 95%
    17:00 -27°C° 0 mm 2 mps 768 mmHg 96%
    18:00 -27°C° 0 mm 2 mps 768 mmHg 96%
    19:00 -28°C° 0 mm 2 mps 769 mmHg 97%
    20:00 -28°C° 0 mm 2 mps 769 mmHg 97%
    21:00 -29°C° 0 mm 2 mps 770 mmHg 98%
    22:00 -29°C° 0 mm 2 mps 770 mmHg 98%
    23:00 -30°C° 0 mm 2 mps 770 mmHg 98%
    Show more